This is the latest recevied weather packets stored in our database for station/object WB5RFA. If no packets are shown the sender has not sent any weather packets the latest 10 day(s).
| Time | Temp. | Humidity | Pressure | Rain* | Wind** | Luminosity | Snow |
|---|---|---|---|---|---|---|---|
| 1777972631 | 9.44° C | 82% | 1006.5 hPa | 0.25 mm | - | - | - |
| 1777972153 | 9.44° C | 81% | 1006.4 hPa | 0.25 mm | - | - | - |
| 1777971672 | 9.44° C | 81% | 1005.6 hPa | 0 mm | - | - | - |
| 1777971191 | 9.44° C | 81% | 1005.3 hPa | 0 mm | - | - | - |
| 1777970713 | 9.44° C | 81% | 1004.8 hPa | 0 mm | - | - | - |
| 1777970232 | 9.44° C | 82% | 1004.9 hPa | 0 mm | - | - | - |
| 1777969751 | 9.44° C | 81% | 1004.9 hPa | 0 mm | - | - | - |
| 1777969271 | 9.44° C | 81% | 1004.6 hPa | 0 mm | - | - | - |
| 1777968792 | 10° C | 81% | 1004.7 hPa | 0 mm | - | - | - |
| 1777968312 | 10° C | 81% | 1003.7 hPa | 0.25 mm | - | - | - |
| 1777967832 | 10° C | 80% | 1005.5 hPa | 0.25 mm | - | - | - |
| 1777967352 | 10.56° C | 78% | 1006 hPa | 0.25 mm | - | - | - |
| 1777966871 | 11.11° C | 76% | 1006.5 hPa | 0.25 mm | - | - | - |
| 1777966392 | 11.67° C | 72% | 1006.5 hPa | 0 mm | - | - | - |
| 1777965912 | 12.22° C | 71% | 1006.7 hPa | 0 mm | - | - | - |
| 1777965432 | 12.78° C | 67% | 1006.9 hPa | 0 mm | - | - | - |
| 1777964953 | 13.33° C | 66% | 1006.9 hPa | 0 mm | - | - | - |
| 1777964471 | 13.33° C | 66% | 1005.9 hPa | 0 mm | - | - | - |
| 1777963991 | 13.33° C | 64% | 1005.5 hPa | 0 mm | - | - | - |
| 1777963512 | 13.89° C | 62% | 1004.8 hPa | 0 mm | - | - | - |
| 1777963032 | 14.44° C | 61% | 1004.4 hPa | 0 mm | - | - | - |
| 1777962551 | 14.44° C | 57% | 1004.3 hPa | 0 mm | - | - | - |
| 1777962073 | 15° C | 60% | 1004 hPa | 0.25 mm | - | - | - |
| 1777961592 | 15° C | 66% | 1004.4 hPa | 0.25 mm | - | - | - |
| 1777961112 | 15° C | 70% | 1003.8 hPa | 0.51 mm | - | - | - |
* Rain latest hour (hover to see other rain measurements)
** Current wind speed in m/s (hover to see current wind gust speed)